Résultats de la compétition "Championnat d'Alsace Moyenne Distance " du 06-05-2007 organisée par le club 6806
     
  Télécharger le fichier CSV.  
     
     

 Circuit "CIRCUIT B"

Licence Nom Prénom Temps CN
précédent
Score sur
la course
Différence
15917KAMMERERMadeleine0:44:19N/A4256N/A
9924BOICHUTIsabelle0:44:23N/A4249N/A
13142LOEWAngelique0:49:26N/A3815N/A
4203MEYEROriane0:51:17N/A3678N/A
15332MEYERPatricia0:51:21N/A3673N/A
2378MAKOVICKAVeronique0:52:23N/A3601N/A
14216VILLARIsabelle0:52:38N/A3583N/A
8217ANDRESClaire0:52:43N/A3578N/A
12145WISSONEmilie0:54:30N/A3461N/A
12078CASTERANMarie0:54:36N/A3454N/A
10903RAVENELManon0:55:27N/A3401N/A
13692HAURYEvelyne0:56:22N/A3346N/A
13351DRUZETICCecilia0:57:04N/A3305N/A
13688FRANCOISAline0:57:20N/A3290N/A
13637KORCHAKLena0:58:00N/A3252N/A
10260LEBIHANSarah1:00:52N/A3099N/A
12761MARCHANDStephanie1:01:34N/A3063N/A
1909MEYERCorinne1:04:12N/A2938N/A
2361THIERYAnnick1:05:26N/A2882N/A
5639HUEBERDiane1:07:39N/A2788N/A
16130ANCELJulie1:08:19N/A2761N/A
310JOLYMauricette1:09:37N/A2709N/A
11507LEBIHANMartine1:10:51N/A2662N/A
10902RAVENELVeronique1:12:52N/A2588N/A
1202VOISINStephanie1:12:57N/A2585N/A
2375MAKOVICKAEdwige1:16:46N/A2457N/A
3904JOUFFROYChristine1:16:54N/A2453N/A
18730DALONLaurence1:37:37N/A1932N/A
18358EVENAurélie1:51:05N/A1698N/A
12829REICHM-LouiseN/AN/A0N/A

  Indice de confiance du circuit (moyenne des différences entre CN et score sur la course des 3 à 10 premiers) : 138






 Retour